Regional Weather Roundup
Issued by NWS Kansas City/Pleasant Hill, MO

Home | Current Version | Previous Version | Text Only | Print | Product List | Glossary On
Versions: 1 2 3 4 5 6 7 8 9 10 11 12 13 14 15 16 17 18 19 20 21 22 23 24 25 26 27 28 29 30 31 32 33 34 35 36 37 38 39 40 41 42 43 44 45 46 47 48 49 50
000
ASUS43 KEAX 111110
RWREAX

WEATHER ROUNDUP FOR EASTERN KANSAS AND NORTHWEST MISSOURI
NATIONAL WEATHER SERVICE KANSAS CITY/PLEASANT HILL MO
500 AM CST THU FEB 11 2016

KSZ040-057-103>105-MOZ028-029-037-043-111200-
...KANSAS CITY METROPOLITAN AREA...

CITY           SKY/WX    TMP DP  RH WIND       PRES   REMARKS
K.C. INTL      PTCLDY    22  19  89 NE8       30.19R WCI  12
K.C. DOWNTOWN  PTCLDY    23  18  81 NE8       30.21R WCI  14
LEES SUMMIT    CLEAR     22  18  85 NE9       30.19R WCI  12
OLATHE - IXD   CLEAR     23  19  85 NE10      30.19R WCI  12
OLATHE - OJC   CLEAR     22  18  85 NE12      30.18R WCI  10
LAWRENCE       CLEAR     23  19  85 N7        30.21R WCI  15

$$

MOZ001>008-011>017-020>025-030>033-038>040-044>046-053-054-111200-
...NORTHERN AND CENTRAL MISSOURI...

CITY           SKY/WX    TMP DP  RH WIND       PRES   REMARKS
ST. JOSEPH     CLOUDY    24  19  81 NE9       30.23R WCI  14
MOSBY            N/A     23  19  86 NE5       30.22R WCI  17
WARRENSBURG    PTCLDY    23  19  86 N9        30.20R WCI  13
WHITEMAN AFB   CLEAR     22  19  87 NE9       30.18R WCI  12
CLINTON          N/A     27  21  80 NE8       30.19R WCI  18
SEDALIA        CLOUDY    23  18  81 NE8       30.21R WCI  14
WARSAW         NOT AVBL
CHILLICOTHE      N/A     23  17  78 NE7G17    30.24R WCI  15
KIRKSVILLE     CLOUDY    18  12  77 NE12      30.24R WCI   5

$$

MOZ041-047>049-056>058-063>065-088>090-097-111200-
...EASTERN AND SOUTHERN MISSOURI...

CITY           SKY/WX    TMP DP  RH WIND       PRES   REMARKS
ST. LOUIS INTL NOT AVBL
SPIRIT OF STL  CLOUDY    23  17  78 NE10      30.24R WCI  12
COLUMBIA       CLOUDY    22  18  85 NE12      30.20R WCI  10
JEFFERSON CITY CLOUDY    23  18  81 NE9       30.22R WCI  13
ROLLA          PTCLDY    20  16  84 NE7       30.14R WCI  11
OSAGE BEACH    CLEAR     21  16  79 NE8       30.16R WCI  12
SPRINGFIELD    CLOUDY    26  16  65 NE6       30.06R WCI  19
BRANSON        CLOUDY    27  16  63 E6        30.06R WCI  20
JOPLIN         CLOUDY    29  22  75 NE9       30.08R WCI  20
WEST PLAINS    CLOUDY    22  11  62 NE9       30.08R WCI  12

$$

IAZ060-094-KSZ022-034>040-054-083-096-NEZ052-066-093-111200-
...KANSAS...SOUTHEAST NEBRASKA AND IOWA...

CITY           SKY/WX    TMP DP  RH WIND       PRES   REMARKS
TOPEKA         CLEAR     24  19  81 N6        30.21R WCI  17
MANHATTAN      CLOUDY    26  22  84 NE9       30.21R WCI  17
EMPORIA        CLEAR     25  21  85 N13       30.15R WCI  14
CHANUTE        CLEAR     27  21  78 NE12      30.12R WCI  17
WICHITA        PTCLDY    35  27  72 N8        30.14R WCI  29
OMAHA          PTCLDY    15   6  67 N6        30.28R WCI   6
LINCOLN        CLOUDY    16  13  88 N8        30.27R WCI   5
FALLS CITY     CLOUDY    22  18  85 N8        30.22R WCI  12
LAMONI         CLOUDY    14   8  77 NE10      30.23R WCI   1
DES MOINES     CLOUDY     8  -2  63 NE7       30.29R WCI  -3

$$




USA.gov is the U.S. government's official web portal to all federal, state and local government web resources and services.